TimeEST,TemperatureF,Dew PointF,Humidity,Sea Level PressureIn,VisibilityMPH,Wind Direction,Wind SpeedMPH,Gust SpeedMPH,PrecipitationIn,Events,Conditions,WindDirDegrees,DateUTC
12:54 AM,41.0,30.9,67,30.21,10.0,NNW,5.8,-,N/A,,Clear,340,2013-11-10 05:54:00
1:54 AM,45.0,27.0,49,30.19,10.0,Variable,4.6,-,N/A,,Clear,0,2013-11-10 06:54:00
2:54 AM,44.1,27.0,51,30.20,10.0,North,10.4,-,N/A,,Clear,350,2013-11-10 07:54:00
3:54 AM,44.1,26.1,49,30.20,10.0,North,4.6,-,N/A,,Clear,350,2013-11-10 08:54:00
4:54 AM,43.0,26.1,51,30.22,10.0,NNW,10.4,-,N/A,,Clear,340,2013-11-10 09:54:00
5:54 AM,42.1,27.0,55,30.23,10.0,NNW,10.4,-,N/A,,Clear,340,2013-11-10 10:54:00
6:54 AM,44.1,27.0,51,30.25,10.0,North,10.4,-,N/A,,Clear,360,2013-11-10 11:54:00
7:54 AM,46.0,28.0,50,30.26,10.0,North,5.8,-,N/A,,Clear,10,2013-11-10 12:54:00
8:54 AM,48.9,28.9,46,30.27,10.0,North,9.2,-,N/A,,Clear,350,2013-11-10 13:54:00
9:54 AM,53.1,30.9,43,30.27,10.0,North,13.8,-,N/A,,Clear,350,2013-11-10 14:54:00
10:54 AM,57.0,33.1,40,30.26,10.0,North,10.4,-,N/A,,Clear,360,2013-11-10 15:54:00
11:54 AM,61.0,35.1,38,30.23,10.0,North,9.2,-,N/A,,Clear,10,2013-11-10 16:54:00
12:54 PM,64.0,34.0,33,30.19,10.0,North,9.2,17.3,N/A,,Clear,350,2013-11-10 17:54:00
1:54 PM,64.0,32.0,30,30.17,10.0,North,13.8,24.2,N/A,,Clear,350,2013-11-10 18:54:00
2:54 PM,64.9,25.0,22,30.16,10.0,NNW,18.4,25.3,N/A,,Clear,340,2013-11-10 19:54:00
3:54 PM,64.0,24.1,22,30.17,10.0,NNW,16.1,24.2,N/A,,Clear,330,2013-11-10 20:54:00
4:54 PM,60.1,28.9,31,30.19,10.0,NNW,13.8,20.7,N/A,,Clear,340,2013-11-10 21:54:00
5:54 PM,55.9,30.0,37,30.22,10.0,Variable,3.5,-,N/A,,Clear,0,2013-11-10 22:54:00
6:54 PM,53.1,30.9,43,30.23,10.0,North,3.5,-,N/A,,Clear,360,2013-11-10 23:54:00
7:54 PM,50.0,30.9,48,30.24,10.0,Calm,Calm,-,N/A,,Clear,0,2013-11-11 00:54:00
8:54 PM,46.9,32.0,56,30.24,10.0,NW,6.9,-,N/A,,Clear,320,2013-11-11 01:54:00
9:54 PM,48.0,30.0,50,30.25,10.0,North,5.8,-,N/A,,Clear,350,2013-11-11 02:54:00
10:54 PM,48.0,21.9,36,30.25,10.0,NNW,10.4,18.4,N/A,,Clear,340,2013-11-11 03:54:00
11:54 PM,48.0,21.0,34,30.25,10.0,North,6.9,-,N/A,,Clear,350,2013-11-11 04:54:00